Weather History for KMYR - October, 2013

Change the Weather History Date:

Friday, October 4, 2013

  Actual Average Record
Temperature  
Mean Temperature 73 °F -  
Max Temperature 82 °F 75 °F 90 °F (1989)
Min Temperature 64 °F 58 °F 45 °F (1952)
Cooling Degree Days 8    
Growing Degree Days 23 (Base 50)    
Moisture  
Dew Point 66 °F    
Average Humidity 87    
Maximum Humidity 100    
Minimum Humidity 58    
Precipitation  
Precipitation 0.00 in - - ()
Sea Level Pressure  
Sea Level Pressure 30.11 in    
Wind  
Wind Speed 3 mph (NE)    
Max Wind Speed 14 mph    
Max Gust Speed -    
Visibility 6 miles    
Events      
Averages and records for this station are not official NWS values.
T = Trace of Precipitation, MM = Missing Value Source: NWS Daily Summary

Daily Weather History Graph

Daily Weather History Graph

Search for Another Location

Airport or City:

Trip Planner

Search our weather history database for the weather conditions in past years. The results will help you decide how hot, cold, wet, or windy it might be!

Date:

Astronomy

Oct. 04, 2013 Rise Set
Actual Time 7:12 AM EDT 6:55 PM EDT
Civil Twilight 6:47 AM EDT 7:20 PM EDT
Nautical Twilight 6:18 AM EDT 7:49 PM EDT
Astronomical Twilight 5:49 AM EDT 8:18 PM EDT
Moon 6:45 AM EDT (10/4) 6:38 PM EDT (10/4)
Length of Visible Light 12h 33m
Length of Day
11h 43m
Waning Crescent, 0% of the Moon is Illuminated
Oct 4
Waning Crescent
Oct 4
New
Oct 11
First Quarter
Oct 18
Full
Oct 26
Last Quarter

Hourly Weather History & Observations

Time (EDT) Temp. Heat Index Dew Point Humidity Pressure Visibility Wind Dir Wind Speed Gust Speed Precip Events Conditions
12:35 AM 68.0 °F - 66.2 °F 94% 30.13 in 0.8 mi Calm Calm - N/A   Unknown
12:55 AM 68.0 °F - 66.2 °F 94% 30.12 in 0.5 mi Calm Calm - N/A   Unknown
1:15 AM 66.2 °F - 64.4 °F 94% 30.12 in 2.5 mi Calm Calm - N/A   Clear
1:35 AM 66.2 °F - 66.2 °F 100% 30.11 in 0.2 mi Calm Calm - N/A   Unknown
1:55 AM 66.2 °F - 64.4 °F 94% 30.11 in 0.2 mi Calm Calm - N/A   Unknown
2:15 AM 66.2 °F - 66.2 °F 100% 30.11 in 0.2 mi Calm Calm - N/A   Unknown
2:35 AM 66.2 °F - 64.4 °F 94% 30.11 in 3.0 mi Calm Calm - N/A   Clear
2:55 AM 64.4 °F - 64.4 °F 100% 30.11 in 7.0 mi Calm Calm - N/A   Clear
3:15 AM 64.4 °F - 64.4 °F 100% 30.10 in 0.8 mi Calm Calm - N/A   Unknown
3:35 AM 64.4 °F - 62.6 °F 94% 30.11 in 0.2 mi Calm Calm - N/A   Unknown
3:55 AM 64.4 °F - 62.6 °F 94% 30.11 in 1.8 mi Calm Calm - N/A   Clear
4:15 AM 64.4 °F - 62.6 °F 94% 30.10 in 10.0 mi North 5.8 mph - N/A   Scattered Clouds
4:35 AM 66.2 °F - 62.6 °F 88% 30.11 in 5.0 mi North 5.8 mph - N/A   Scattered Clouds
4:55 AM 66.2 °F - 62.6 °F 88% 30.11 in 5.0 mi North 5.8 mph - N/A   Partly Cloudy
5:15 AM 66.2 °F - 64.4 °F 94% 30.10 in 5.0 mi North 4.6 mph - N/A   Partly Cloudy
5:35 AM 66.2 °F - 62.6 °F 88% 30.10 in 3.0 mi North 4.6 mph - N/A   Scattered Clouds
5:55 AM 66.2 °F - 64.4 °F 94% 30.10 in 5.0 mi North 5.8 mph - N/A   Mostly Cloudy
6:45 AM 68.0 °F - 64.4 °F 88% 30.11 in 6.0 mi North 5.8 mph - N/A   Mostly Cloudy
7:45 AM 69.8 °F - 66.2 °F 88% 30.12 in 7.0 mi North 5.8 mph - N/A   Mostly Cloudy
8:50 AM 69.8 °F - 66.2 °F 88% 30.14 in 7.0 mi North 5.8 mph - N/A   Mostly Cloudy
9:45 AM 71.6 °F - 68.0 °F 88% 30.15 in 7.0 mi North 5.8 mph - N/A   Mostly Cloudy
10:50 AM 77.0 °F - 69.8 °F 78% 30.15 in 10.0 mi ENE 5.8 mph - N/A   Mostly Cloudy
11:50 AM 82.4 °F 86.3 °F 69.8 °F 66% 30.15 in 10.0 mi NNE 9.2 mph - N/A   Scattered Clouds
12:47 PM 82.4 °F 86.3 °F 69.8 °F 66% 30.13 in 10.0 mi ESE 11.5 mph - N/A   Scattered Clouds
1:45 PM 82.4 °F 84.6 °F 66.2 °F 58% 30.11 in 10.0 mi SSE 11.5 mph - N/A   Mostly Cloudy
2:45 PM 82.4 °F 85.4 °F 68.0 °F 62% 30.09 in 10.0 mi SSE 11.5 mph - N/A   Mostly Cloudy
4:50 PM 80.6 °F 83.2 °F 68.0 °F 65% 30.08 in 10.0 mi SSE 13.8 mph - N/A   Scattered Clouds
5:50 PM 78.8 °F - 68.0 °F 69% 30.08 in 10.0 mi SSE 11.5 mph - N/A   Partly Cloudy
6:45 PM 77.0 °F - 69.8 °F 78% 30.09 in 10.0 mi South 11.5 mph - N/A   Clear
7:45 PM 73.4 °F - 69.8 °F 88% 30.09 in 10.0 mi SSE 4.6 mph - N/A   Clear
8:45 PM 73.4 °F - 69.8 °F 88% 30.10 in 10.0 mi SSE 6.9 mph - N/A   Clear
9:45 PM 69.8 °F - 66.2 °F 88% 30.11 in 10.0 mi SSW 4.6 mph - N/A   Clear
10:45 PM 69.8 °F - 68.0 °F 94% 30.12 in 10.0 mi Calm Calm - N/A   Clear
11:15 PM 68.0 °F - 64.4 °F 88% 30.13 in 0.8 mi Calm Calm - N/A   Unknown
11:35 PM 68.0 °F - 66.2 °F 94% 30.13 in 2.5 mi West 3.5 mph - N/A   Clear
11:55 PM 68.0 °F - 64.4 °F 88% 30.13 in 1.5 mi Calm Calm - N/A   Clear